GW5433 Weather Reports


time (UTC)temp
C
wind
direction
speed
KPH
gust
KPH
rain 1hr
cm
rain 24hr
cm
rain mn
cm
humidity
%
barometer
mb
20260504192505 27 255 1.6 8.0 0.00 0.00 0.00 53 1013.8
20260504192009 27 221 3.2 8.0 0.00 0.00 0.00 55 1014.0
20260504191520 27 238 3.2 8.0 0.00 0.00 0.00 55 1013.9
20260504191007 27 186 0.0 8.0 0.00 0.00 0.00 56 1013.9
20260504190502 27 252 1.6 6.4 0.00 0.00 0.00 55 1013.9
20260504190004 27 248 1.6 9.7 0.00 0.00 0.00 55 1013.9
20260504185504 27 275 1.6 9.7 0.00 0.00 0.00 55 1014.1
20260504185003 27 186 3.2 9.7 0.00 0.00 0.00 55 1014.2
20260504184505 27 81 3.2 9.7 0.00 0.00 0.00 55 1014.2
20260504184008 27 44 1.6 8.0 0.00 0.00 0.00 55 1014.2
20260504183504 27 155 1.6 11.3 0.00 0.00 0.00 54 1014.2
20260504183010 27 85 4.8 11.3 0.00 0.00 0.00 54 1014.3
20260504182508 27 245 1.6 20.9 0.00 0.00 0.00 54 1014.3
20260504182001 27 146 3.2 20.9 0.00 0.00 0.00 53 1014.4
20260504181506 27 235 3.2 11.3 0.00 0.00 0.00 54 1014.4
20260504181002 27 126 1.6 8.0 0.00 0.00 0.00 54 1014.5
20260504180502 27 151 0.0 8.0 0.00 0.00 0.00 54 1014.6
20260504180004 27 284 1.6 8.0 0.00 0.00 0.00 54 1014.8
20260504175504 27 308 1.6 9.7 0.00 0.00 0.00 55 1015.0
20260504175005 27 229 1.6 12.9 0.00 0.00 0.00 53 1015.0
20260504174508 27 295 3.2 14.5 0.00 0.00 0.00 53 1015.2
20260504174003 27 191 4.8 14.5 0.00 0.00 0.00 55 1015.2
20260504173503 27 201 1.6 14.5 0.00 0.00 0.00 54 1015.0
20260504173006 27 123 3.2 14.5 0.00 0.00 0.00 53 1015.2
20260504172502 27 87 3.2 11.3 0.00 0.00 0.00 52 1015.3
20260504172002 27 238 3.2 11.3 0.00 0.00 0.00 53 1015.5
20260504171510 27 229 1.6 11.3 0.00 0.00 0.00 55 1015.4
20260504171007 26 270 3.2 9.7 0.00 0.00 0.00 56 1015.6
20260504170502 27 120 3.2 9.7 0.00 0.00 0.00 54 1015.6
20260504151010 24 249 3.2 9.7 0.00 0.00 0.00 63 1016.0
20260504150504 23 226 1.6 8.0 0.00 0.00 0.00 64 1016.1
20260504141004 22 243 0.0 4.8 0.00 0.00 0.00 67 1016.4
20260504140504 21 174 0.0 4.8 0.00 0.00 0.00 69 1016.2
20260504130503 17 205 0.0 3.2 0.00 0.00 0.00 81 1016.0
20260504110507 13 133 0.0 0.0 0.00 0.00 0.00 88 1015.9
20260504100506 13 133 0.0 0.0 0.00 0.00 0.00 87 1016.2
20260504081524 13 134 0.0 0.0 0.00 0.00 0.00 84 1016.8
20260504081004 13 134 0.0 0.0 0.00 0.00 0.00 83 1016.9
20260504080504 13 134 0.0 0.0 0.00 0.00 0.00 83 1017.1
20260504050509 15 150 0.0 0.0 0.00 0.00 0.00 77 1018.6
20260504045509 15 150 0.0 0.0 0.00 0.00 0.00 78 1018.6
20260504045007 15 150 0.0 0.0 0.00 0.00 0.00 78 1018.5
20260504044525 15 150 0.0 0.0 0.00 0.00 0.00 78 1018.8
20260504044008 15 150 0.0 0.0 0.00 0.00 0.00 77 1018.8
20260504043508 16 150 0.0 0.0 0.00 0.00 0.00 76 1018.7
20260504043038 16 150 0.0 0.0 0.00 0.00 0.00 76 1018.7
20260504042508 16 150 0.0 0.0 0.00 0.00 0.00 77 1018.8
20260504042003 16 150 0.0 0.0 0.00 0.00 0.00 75 1018.8
20260504041521 16 152 0.0 0.0 0.00 0.00 0.00 75 1018.7
20260504041007 16 152 0.0 0.0 0.00 0.00 0.00 74 1018.8
20260504040506 16 152 0.0 0.0 0.00 0.00 0.00 72 1018.7
20260504040024 17 152 0.0 0.0 0.00 0.00 0.00 72 1018.6
20260504035508 17 152 0.0 0.0 0.00 0.00 0.00 71 1018.5
20260504035007 17 152 0.0 0.0 0.00 0.00 0.00 71 1018.6
20260504034526 17 152 0.0 0.0 0.00 0.00 0.00 70 1018.7
20260504034010 17 152 0.0 0.0 0.00 0.00 0.00 69 1018.8
20260504033511 17 152 0.0 0.0 0.00 0.00 0.00 69 1018.8
20260504033030 17 152 0.0 0.0 0.00 0.00 0.00 68 1018.9
20260504032509 18 152 0.0 0.0 0.00 0.00 0.00 67 1018.7
20260504032010 18 152 0.0 0.0 0.00 0.00 0.00 67 1018.6
20260504031526 18 152 0.0 0.0 0.00 0.00 0.00 66 1018.6
20260504031013 18 150 0.0 0.0 0.00 0.00 0.00 66 1018.6
20260504030511 18 143 0.0 0.0 0.00 0.00 0.00 65 1018.6
20260504030019 18 150 0.0 1.6 0.00 0.00 0.00 65 1018.7
20260504025507 18 216 0.0 1.6 0.00 0.00 0.00 64 1018.6
20260504025008 18 239 0.0 0.0 0.00 0.00 0.00 64 1018.5
20260504024522 18 203 0.0 1.6 0.00 0.00 0.00 63 1018.6
20260504024008 19 203 0.0 3.2 0.00 0.00 0.00 62 1018.7
20260504023508 19 198 0.0 6.4 0.00 0.00 0.00 61 1018.7
20260504023028 19 179 0.0 6.4 0.00 0.00 0.00 61 1018.6
20260504022504 19 150 0.0 3.2 0.00 0.00 0.00 60 1018.7
20260504022004 20 207 0.0 3.2 0.00 0.00 0.00 60 1018.6
20260504021515 20 176 0.0 3.2 0.00 0.00 0.00 59 1018.5
20260504021004 20 199 0.0 3.2 0.00 0.00 0.00 58 1018.5
20260504020504 20 239 0.0 3.2 0.00 0.00 0.00 58 1018.5
20260504020012 20 290 0.0 3.2 0.00 0.00 0.00 57 1018.4
20260504015504 20 168 1.6 3.2 0.00 0.00 0.00 57 1018.5
20260504015008 20 240 0.0 3.2 0.00 0.00 0.00 57 1018.5
20260504014518 20 175 0.0 3.2 0.00 0.00 0.00 56 1018.5
20260504014006 20 224 0.0 3.2 0.00 0.00 0.00 55 1018.4
20260504013510 20 208 0.0 3.2 0.00 0.00 0.00 55 1018.3
20260504013005 20 245 0.0 3.2 0.00 0.00 0.00 54 1018.4
20260504012504 21 219 0.0 3.2 0.00 0.00 0.00 53 1018.4
20260504012004 21 233 0.0 3.2 0.00 0.00 0.00 53 1018.4
20260504011518 21 148 0.0 3.2 0.00 0.00 0.00 52 1018.3
20260504011003 21 106 0.0 4.8 0.00 0.00 0.00 51 1018.3
20260504010504 21 237 1.6 4.8 0.00 0.00 0.00 51 1018.3
20260504010015 21 165 0.0 6.4 0.00 0.00 0.00 50 1018.3
20260504005504 21 263 0.0 6.4 0.00 0.00 0.00 50 1018.3
20260504005009 22 229 0.0 4.8 0.00 0.00 0.00 50 1018.3
20260504004517 22 198 0.0 8.0 0.00 0.00 0.00 48 1018.4
20260504004005 22 240 0.0 8.0 0.00 0.00 0.00 48 1018.4
20260504003508 22 221 1.6 6.4 0.00 0.00 0.00 48 1018.3
20260504003023 22 179 0.0 6.4 0.00 0.00 0.00 48 1018.3
20260504002508 22 234 0.0 6.4 0.00 0.00 0.00 46 1018.3
20260504002014 23 201 1.6 6.4 0.00 0.00 0.00 45 1018.4
20260504001504 23 160 0.0 6.4 0.00 0.00 0.00 46 1018.3
20260504001004 23 172 0.0 6.4 0.00 0.00 0.00 44 1018.2
20260504000503 23 167 0.0 4.8 0.00 0.00 0.00 45 1018.3
20260504000008 24 210 0.0 8.0 0.00 0.00 0.00 45 1018.3
20260503235503 24 209 0.0 8.0 0.00 0.00 0.00 42 1018.3
20260503235004 24 194 3.2 8.0 0.00 0.00 0.00 41 1018.4
20260503234515 24 196 0.0 8.0 0.00 0.00 0.00 41 1018.3
20260503234007 24 200 0.0 6.4 0.00 0.00 0.00 42 1018.3
20260503233503 24 177 1.6 8.0 0.00 0.00 0.00 41 1018.5
20260503233016 24 108 1.6 12.9 0.00 0.00 0.00 43 1018.5
20260503232506 24 173 4.8 12.9 0.00 0.00 0.00 41 1018.6
20260503232007 24 203 0.0 9.7 0.00 0.00 0.00 42 1018.6
20260503231525 24 184 3.2 9.7 0.00 0.00 0.00 41 1018.5
20260503231007 24 195 3.2 9.7 0.00 0.00 0.00 40 1018.6
20260503230508 24 13 1.6 8.0 0.00 0.00 0.00 41 1018.6
20260503230008 24 24 0.0 8.0 0.00 0.00 0.00 41 1018.5
20260503225508 25 34 0.0 8.0 0.00 0.00 0.00 42 1018.5
20260503225005 25 128 0.0 8.0 0.00 0.00 0.00 41 1018.7
20260503224515 25 72 0.0 8.0 0.00 0.00 0.00 40 1018.8
20260503224005 25 130 1.6 8.0 0.00 0.00 0.00 42 1018.7
20260503223508 25 203 3.2 9.7 0.00 0.00 0.00 39 1018.6
20260503223018 25 260 3.2 9.7 0.00 0.00 0.00 39 1018.9
20260503222506 26 139 0.0 8.0 0.00 0.00 0.00 41 1018.9
20260503222008 25 141 1.6 11.3 0.00 0.00 0.00 41 1019.1
20260503221523 26 154 1.6 11.3 0.00 0.00 0.00 40 1019.1
20260503221011 26 63 1.6 9.7 0.00 0.00 0.00 39 1019.1
20260503220507 26 7 0.0 9.7 0.00 0.00 0.00 39 1018.9
20260503220026 26 191 3.2 9.7 0.00 0.00 0.00 37 1019.1
20260503215510 26 141 0.0 6.4 0.00 0.00 0.00 38 1019.0
20260503215009 26 191 0.0 11.3 0.00 0.00 0.00 38 1019.1
20260503214506 27 238 1.6 11.3 0.00 0.00 0.00 36 1019.1
20260503214007 27 160 0.0 4.8 0.00 0.00 0.00 32 1019.1
20260503213506 28 84 1.6 9.7 0.00 0.00 0.00 32 1019.2
20260503213014 27 141 0.0 9.7 0.00 0.00 0.00 32 1019.4
20260503212504 28 164 1.6 8.0 0.00 0.00 0.00 30 1019.4
20260503212007 28 148 0.0 3.2 0.00 0.00 0.00 31 1019.6
20260503211520 28 145 0.0 6.4 0.00 0.00 0.00 31 1019.7
20260503211006 28 249 1.6 6.4 0.00 0.00 0.00 29 1019.7
20260503210507 28 25 0.0 3.2 0.00 0.00 0.00 31 1019.7
20260503210022 28 228 0.0 14.5 0.00 0.00 0.00 32 1019.9
20260503205509 28 148 1.6 14.5 0.00 0.00 0.00 30 1019.9
20260503205009 28 228 0.0 6.4 0.00 0.00 0.00 30 1019.9
20260503204526 28 140 0.0 4.8 0.00 0.00 0.00 30 1020.0
20260503204008 28 240 1.6 6.4 0.00 0.00 0.00 30 1020.1
20260503203510 28 137 1.6 8.0 0.00 0.00 0.00 30 1020.1
20260503203009 28 124 1.6 11.3 0.00 0.00 0.00 32 1020.1
20260503202506 28 229 1.6 11.3 0.00 0.00 0.00 28 1020.3
20260503202007 28 168 0.0 4.8 0.00 0.00 0.00 30 1020.4
20260503201514 28 167 0.0 4.8 0.00 0.00 0.00 32 1020.5
20260503201005 28 166 0.0 6.4 0.00 0.00 0.00 33 1020.5
20260503200507 27 137 0.0 6.4 0.00 0.00 0.00 30 1020.6
20260503200019 27 167 0.0 6.4 0.00 0.00 0.00 30 1020.7
20260503195508 27 155 1.6 12.9 0.00 0.00 0.00 30 1020.7
20260503195010 28 168 0.0 12.9 0.00 0.00 0.00 30 1020.7
20260503194525 28 139 3.2 11.3 0.00 0.00 0.00 32 1020.8
20260503194009 27 141 1.6 6.4 0.00 0.00 0.00 32 1020.8
20260503193507 27 184 0.0 6.4 0.00 0.00 0.00 30 1020.9
20260503193023 28 230 0.0 8.0 0.00 0.00 0.00 27 1020.9